When you browse on this site, cookies collect data to enhance your experience and personalize the content and advertising you see.
Visit our Privacy Policy to learn more. By continuing to use the site, you agree to this use of cookies and data.
  • In United Kingdom
  • List of Countries
  • For 7 days
  • Water Temperature
  • Satellite Maps
  • Weather Map
  • Weather Widgets
  • user-avatar
    Login

    Hourly Weather Sveti Vlas

    Today, 15 July, Monday

    Time Temperature Precipitation Wind Pressure Humidity
    00:00 +17°C° 0.1 mm 4 mps 749 mmHg 88%
    01:00 +15°C° 0.1 mm 4 mps 749 mmHg 89%
    02:00 +15°C° 0 mm 5 mps 749 mmHg 89%
    03:00 +15°C° 0 mm 4 mps 749 mmHg 89%
    04:00 +15°C° 0 mm 4 mps 749 mmHg 89%
    05:00 +14°C° 0 mm 4 mps 749 mmHg 89%
    06:00 +17°C° 0 mm 4 mps 749 mmHg 83%
    07:00 +19°C° 0 mm 4 mps 749 mmHg 77%
    08:00 +21°C° 0 mm 4 mps 749 mmHg 69%
    09:00 +22°C° 0 mm 3 mps 749 mmHg 62%
    10:00 +24°C° 0 mm 3 mps 749 mmHg 55%
    11:00 +26°C° 0 mm 3 mps 749 mmHg 49%
    12:00 +27°C° 0 mm 3 mps 749 mmHg 46%
    13:00 +27°C° 0 mm 3 mps 749 mmHg 43%
    14:00 +28°C° 0 mm 2 mps 750 mmHg 42%
    15:00 +27°C° 0 mm 2 mps 750 mmHg 45%
    16:00 +27°C° 0 mm 2 mps 750 mmHg 48%
    17:00 +26°C° 0 mm 2 mps 750 mmHg 50%
    18:00 +25°C° 0 mm 2 mps 750 mmHg 57%
    19:00 +23°C° 0 mm 2 mps 750 mmHg 63%
    20:00 +20°C° 0 mm 2 mps 750 mmHg 69%
    21:00 +20°C° 0 mm 2 mps 750 mmHg 71%
    22:00 +19°C° 0 mm 2 mps 750 mmHg 72%
    23:00 +19°C° 0 mm 2 mps 750 mmHg 73%

    Tomorrow, 16 July, Tuesday

    Time Temperature Precipitation Wind Pressure Humidity
    00:00 +18°C° 0 mm 2 mps 750 mmHg 74%
    01:00 +18°C° 0 mm 2 mps 751 mmHg 74%
    02:00 +18°C° 0 mm 2 mps 751 mmHg 75%
    03:00 +18°C° 0 mm 2 mps 751 mmHg 76%
    04:00 +17°C° 0 mm 2 mps 750 mmHg 78%
    05:00 +17°C° 0 mm 2 mps 750 mmHg 79%
    06:00 +19°C° 0 mm 2 mps 751 mmHg 73%
    07:00 +21°C° 0 mm 2 mps 751 mmHg 67%
    08:00 +24°C° 0 mm 1 mps 751 mmHg 62%
    09:00 +25°C° 0 mm 2 mps 751 mmHg 58%
    10:00 +26°C° 0 mm 2 mps 751 mmHg 54%
    11:00 +27°C° 0 mm 2 mps 751 mmHg 50%
    12:00 +27°C° 0.1 mm 3 mps 751 mmHg 52%
    13:00 +27°C° 0.1 mm 3 mps 751 mmHg 54%
    14:00 +27°C° 0.1 mm 4 mps 751 mmHg 57%
    15:00 +26°C° 0.1 mm 4 mps 750 mmHg 58%
    16:00 +26°C° 0.1 mm 4 mps 750 mmHg 60%
    17:00 +26°C° 0.1 mm 4 mps 750 mmHg 62%
    18:00 +24°C° 0 mm 3 mps 750 mmHg 67%
    19:00 +23°C° 0 mm 2 mps 750 mmHg 72%
    20:00 +21°C° 0 mm 2 mps 750 mmHg 77%
    21:00 +20°C° 0 mm 2 mps 750 mmHg 77%
    22:00 +20°C° 0 mm 2 mps 750 mmHg 78%
    23:00 +19°C° 0 mm 2 mps 751 mmHg 79%

    Day after tomorrow, 17 July, Wednesday

    Time Temperature Precipitation Wind Pressure Humidity
    00:00 +19°C° 0 mm 2 mps 750 mmHg 79%
    01:00 +19°C° 0 mm 2 mps 750 mmHg 79%
    02:00 +19°C° 0 mm 2 mps 750 mmHg 79%
    03:00 +19°C° 0 mm 3 mps 750 mmHg 80%
    04:00 +18°C° 0 mm 3 mps 750 mmHg 81%
    05:00 +18°C° 0 mm 3 mps 750 mmHg 82%
    06:00 +20°C° 0 mm 3 mps 750 mmHg 75%
    07:00 +22°C° 0 mm 3 mps 750 mmHg 68%
    08:00 +25°C° 0 mm 3 mps 751 mmHg 61%
    09:00 +26°C° 0 mm 3 mps 751 mmHg 54%
    10:00 +27°C° 0 mm 3 mps 751 mmHg 48%
    11:00 +29°C° 0 mm 4 mps 751 mmHg 42%
    12:00 +29°C° 0 mm 4 mps 751 mmHg 42%
    13:00 +29°C° 0 mm 3 mps 750 mmHg 43%
    14:00 +29°C° 0 mm 3 mps 750 mmHg 43%
    15:00 +28°C° 0 mm 3 mps 750 mmHg 45%
    16:00 +28°C° 0 mm 3 mps 750 mmHg 48%
    17:00 +28°C° 0 mm 3 mps 750 mmHg 50%
    18:00 +26°C° 0 mm 2 mps 750 mmHg 60%
    19:00 +24°C° 0 mm 2 mps 750 mmHg 67%
    20:00 +22°C° 0 mm 1 mps 750 mmHg 74%
    21:00 +22°C° 0 mm 1 mps 750 mmHg 75%
    22:00 +21°C° 0 mm 1 mps 750 mmHg 76%
    23:00 +21°C° 0 mm 1 mps 751 mmHg 77%

    18 July, Thursday

    Time Temperature Precipitation Wind Pressure Humidity
    00:00 +21°C° 0 mm 1 mps 751 mmHg 77%
    01:00 +20°C° 0 mm 1 mps 751 mmHg 78%
    02:00 +20°C° 0 mm 1 mps 751 mmHg 78%
    03:00 +20°C° 0 mm 1 mps 751 mmHg 78%
    04:00 +19°C° 0 mm 2 mps 751 mmHg 77%
    05:00 +19°C° 0 mm 2 mps 751 mmHg 76%
    06:00 +21°C° 0 mm 2 mps 751 mmHg 70%
    07:00 +22°C° 0 mm 3 mps 751 mmHg 63%
    08:00 +25°C° 0 mm 3 mps 751 mmHg 57%
    09:00 +27°C° 0 mm 3 mps 752 mmHg 52%
    10:00 +28°C° 0 mm 3 mps 752 mmHg 48%
    11:00 +29°C° 0 mm 3 mps 752 mmHg 43%
    12:00 +29°C° 0 mm 3 mps 752 mmHg 44%
    13:00 +29°C° 0 mm 3 mps 752 mmHg 45%
    14:00 +29°C° 0 mm 3 mps 752 mmHg 46%
    15:00 +28°C° 0 mm 3 mps 752 mmHg 48%
    16:00 +28°C° 0 mm 3 mps 752 mmHg 50%
    17:00 +28°C° 0 mm 3 mps 752 mmHg 52%
    18:00 +26°C° 0 mm 3 mps 752 mmHg 59%
    19:00 +24°C° 0 mm 2 mps 752 mmHg 67%
    20:00 +21°C° 0 mm 2 mps 753 mmHg 74%
    21:00 +22°C° 0 mm 1 mps 753 mmHg 76%
    22:00 +22°C° 0 mm 1 mps 753 mmHg 78%
    23:00 +21°C° 0 mm 1 mps 754 mmHg 80%

    19 July, Friday

    Time Temperature Precipitation Wind Pressure Humidity
    00:00 +21°C° 0 mm 1 mps 754 mmHg 80%
    01:00 +21°C° 0 mm 1 mps 754 mmHg 80%
    02:00 +18°C° 0 mm 0 mps 754 mmHg 80%
    03:00 +18°C° 0 mm 0 mps 754 mmHg 80%
    04:00 +20°C° 0 mm 1 mps 754 mmHg 79%
    05:00 +20°C° 0 mm 1 mps 754 mmHg 79%
    06:00 +22°C° 0 mm 1 mps 754 mmHg 71%
    07:00 +24°C° 0 mm 1 mps 754 mmHg 64%
    08:00 +26°C° 0 mm 2 mps 754 mmHg 56%
    09:00 +27°C° 0 mm 2 mps 754 mmHg 52%
    10:00 +28°C° 0 mm 3 mps 755 mmHg 48%
    11:00 +29°C° 0 mm 3 mps 755 mmHg 44%
    12:00 +29°C° 0 mm 4 mps 755 mmHg 44%
    13:00 +29°C° 0 mm 4 mps 755 mmHg 44%
    14:00 +30°C° 0 mm 4 mps 754 mmHg 43%
    15:00 +29°C° 0 mm 4 mps 754 mmHg 46%
    16:00 +28°C° 0 mm 4 mps 754 mmHg 48%
    17:00 +28°C° 0 mm 4 mps 754 mmHg 51%
    18:00 +26°C° 0 mm 3 mps 754 mmHg 61%
    19:00 +24°C° 0 mm 3 mps 755 mmHg 72%
    20:00 +21°C° 0 mm 2 mps 755 mmHg 83%
    21:00 +20°C° 0 mm 2 mps 755 mmHg 84%
    22:00 +21°C° 0 mm 1 mps 755 mmHg 85%
    23:00 +20°C° 0 mm 1 mps 756 mmHg 86%

    20 July, Saturday

    Time Temperature Precipitation Wind Pressure Humidity
    00:00 +20°C° 0 mm 1 mps 755 mmHg 85%
    01:00 +20°C° 0 mm 1 mps 755 mmHg 85%
    02:00 +19°C° 0 mm 1 mps 755 mmHg 85%
    03:00 +19°C° 0 mm 1 mps 755 mmHg 84%
    04:00 +19°C° 0 mm 1 mps 755 mmHg 83%
    05:00 +19°C° 0 mm 1 mps 755 mmHg 82%
    06:00 +21°C° 0 mm 1 mps 756 mmHg 73%
    07:00 +24°C° 0 mm 1 mps 756 mmHg 63%
    08:00 +26°C° 0 mm 1 mps 756 mmHg 54%
    09:00 +27°C° 0 mm 2 mps 756 mmHg 49%
    10:00 +28°C° 0 mm 2 mps 757 mmHg 44%
    11:00 +30°C° 0 mm 3 mps 757 mmHg 38%
    12:00 +30°C° 0 mm 3 mps 757 mmHg 39%
    13:00 +30°C° 0 mm 4 mps 757 mmHg 39%
    14:00 +30°C° 0 mm 4 mps 757 mmHg 39%
    15:00 +30°C° 0 mm 4 mps 756 mmHg 42%
    16:00 +29°C° 0 mm 3 mps 756 mmHg 44%
    17:00 +28°C° 0 mm 3 mps 756 mmHg 47%
    18:00 +26°C° 0 mm 3 mps 757 mmHg 58%
    19:00 +24°C° 0 mm 2 mps 757 mmHg 69%
    20:00 +21°C° 0 mm 2 mps 757 mmHg 80%
    21:00 +22°C° 0 mm 1 mps 757 mmHg 80%
    22:00 +21°C° 0 mm 1 mps 757 mmHg 80%
    23:00 +21°C° 0 mm 1 mps 758 mmHg 80%
    Show more